Terminal Aerodrome Forecast
Issued by NWS Pittsburgh, PA

Home | Current Version | Previous Version | Text Only | Print | Product List | Glossary On
Versions: 1 2 3 4 5 6 7 8 9 10 11 12 13 14 15 16 17 18 19 20 21 22 23 24 25 26 27 28 29 30 31 32 33 34
915
FTUS41 KPBZ 181459 AAA
TAFPIT
TAF AMD
KPIT 181459Z 1815/1918 22010KT P6SM SKC
     FM181600 23011G18KT P6SM SKC
     FM182300 23009KT P6SM SKC=

USA.gov is the U.S. government's official web portal to all federal, state and local government web resources and services.